07-03-2022, 00:00:00,     51,    0.0,    0.0,   0.00,   0.00, 1024.1,   79.1, -999.0
07-03-2022, 00:00:10,     51,    0.0,    0.1,   0.00,   0.00, 1024.1,   79.2, -999.0
07-03-2022, 00:00:21,     51,    0.0,    0.1,   0.00,   0.00, 1024.1,   79.3, -999.0
07-03-2022, 00:00:30,     51,    0.0,    0.0,   0.00,   0.00, 1024.1,   79.3, -999.0
07-03-2022, 00:00:40,     51,    0.0,    0.0,   0.00,   0.00, 1024.1,   79.3, -999.0
07-03-2022, 00:00:50,     51,    0.0,    0.0,   0.00,   0.00, 1024.1,   79.2, -999.0
07-03-2022, 00:01:00,     51,    0.0,    0.0,   0.00,   0.00, 1024.1,   79.2, -999.0
07-03-2022, 00:01:10,     51,    0.0,    0.1,   0.00,   0.00, 1024.1,   79.2, -999.0
07-03-2022, 00:01:20,     51,    0.0,    0.1,   0.00,   0.00, 1024.1,   79.2, -999.0
07-03-2022, 00:01:30,     52,    0.0,    0.0,   0.00,   0.00, 1024.1,   79.3, -999.0
07-03-2022, 00:01:40,     51,    0.0,    0.1,   0.00,   0.00, 1024.1,   79.3, -999.0
07-03-2022, 00:01:50,     51,    0.0,    0.0,   0.00,   0.00, 1024.1,   79.2, -999.0
07-03-2022, 00:02:00,     51,    0.0,    0.1,   0.00,   0.00, 1024.1,   79.2, -999.0
07-03-2022, 00:02:10,     51,    0.0,    0.1,   0.00,   0.00, 1024.1,   79.1, -999.0
07-03-2022, 00:02:20,     51,    0.0,    0.2,   0.00,   0.00, 1024.1,   79.2, -999.0
07-03-2022, 00:02:30,     51,    0.0,    0.2,   0.00,   0.00, 1024.1,   79.1, -999.0
07-03-2022, 00:02:39,     51,    0.0,    0.2,   0.00,   0.00, 1024.1,   79.2, -999.0
07-03-2022, 00:02:50,     51,    0.0,    0.2,   0.00,   0.00, 1024.0,   78.9, -999.0
07-03-2022, 00:03:00,     51,    0.0,    0.3,   0.00,   0.00, 1024.1,   79.0, -999.0
07-03-2022, 00:03:09,     51,    0.0,    0.2,   0.00,   0.00, 1024.1,   79.0, -999.0
07-03-2022, 00:03:20,     51,    0.0,    0.3,   0.00,   0.00, 1024.1,   79.0, -999.0
07-03-2022, 00:03:30,     52,    0.0,    0.2,   0.00,   0.00, 1024.1,   78.9, -999.0
07-03-2022, 00:03:39,     52,    0.0,    0.2,   0.00,   0.00, 1024.0,   78.8, -999.0
07-03-2022, 00:03:49,     51,    0.0,    0.3,   0.00,   0.00, 1024.0,   78.7, -999.0
07-03-2022, 00:03:59,     51,    0.0,    0.3,   0.00,   0.00, 1024.1,   78.7, -999.0
07-03-2022, 00:04:09,     51,    0.0,    0.1,   0.00,   0.00, 1024.1,   78.8, -999.0
07-03-2022, 00:04:19,     51,    0.0,    0.2,   0.00,   0.00, 1024.1,   78.6, -999.0
07-03-2022, 00:04:29,     51,    0.0,    0.3,   0.00,   0.00, 1024.0,   78.6, -999.0
07-03-2022, 00:04:39,     51,    0.0,    0.2,   0.00,   0.00, 1024.0,   78.7, -999.0
07-03-2022, 00:04:49,     51,    0.0,    0.2,   0.00,   0.00, 1024.1,   78.6, -999.0
07-03-2022, 00:04:59,     51,    0.0,    0.2,   0.00,   0.00, 1024.1,   78.6, -999.0
07-03-2022, 00:05:09,     51,    0.0,    0.1,   0.00,   0.00, 1024.0,   78.4, -999.0
07-03-2022, 00:05:19,     52,    0.0,    0.2,   0.00,   0.00, 1024.1,   78.5, -999.0
07-03-2022, 00:05:29,     51,    0.0,    0.2,   0.00,   0.00, 1024.1,   78.4, -999.0
07-03-2022, 00:05:39,     51,    0.0,    0.2,   0.00,   0.00, 1024.1,   78.5, -999.0
07-03-2022, 00:05:49,     51,    0.0,    0.2,   0.00,   0.00, 1024.1,   78.4, -999.0
07-03-2022, 00:05:59,     52,    0.0,    0.2,   0.00,   0.00, 1024.1,   78.3, -999.0
07-03-2022, 00:06:09,     51,    0.0,    0.2,   0.00,   0.00, 1024.1,   78.3, -999.0
07-03-2022, 00:06:18,     51,    0.0,    0.1,   0.00,   0.00, 1024.1,   78.2, -999.0
07-03-2022, 00:06:29,     51,    0.0,    0.2,   0.00,   0.00, 1024.1,   78.3, -999.0
07-03-2022, 00:06:39,     52,    0.0,    0.1,   0.00,   0.00, 1024.1,   78.2, -999.0
07-03-2022, 00:06:48,     51,    0.0,    0.1,   0.00,   0.00, 1024.1,   78.2, -999.0
07-03-2022, 00:06:58,     51,    0.0,    0.1,   0.00,   0.00, 1024.1,   78.1, -999.0
07-03-2022, 00:07:08,     51,    0.0,    0.1,   0.00,   0.00, 1024.1,   78.1, -999.0
07-03-2022, 00:07:18,     51,    0.0,    0.1,   0.00,   0.00, 1024.1,   78.0, -999.0
07-03-2022, 00:07:28,     51,    0.0,    0.1,   0.00,   0.00, 1024.0,   78.1, -999.0
07-03-2022, 00:07:38,     51,    0.0,    0.1,   0.00,   0.00, 1024.1,   78.0, -999.0
07-03-2022, 00:07:48,     51,    0.0,    0.1,   0.00,   0.00, 1024.1,   78.0, -999.0
07-03-2022, 00:07:58,     51,    0.0,    0.1,   0.00,   0.00, 1024.1,   78.0, -999.0
07-03-2022, 00:08:08,     51,    0.0,    0.1,   0.00,   0.00, 1024.1,   78.0, -999.0
07-03-2022, 00:08:18,     51,    0.0,    0.1,   0.00,   0.00, 1024.1,   78.0, -999.0
07-03-2022, 00:08:28,     51,    0.0,    0.1,   0.00,   0.00, 1024.0,   78.0, -999.0
07-03-2022, 00:08:38,     51,    0.0,    0.1,   0.00,   0.00, 1024.0,   77.9, -999.0
07-03-2022, 00:08:48,     51,    0.0,    0.1,   0.00,   0.00, 1024.0,   78.2, -999.0
07-03-2022, 00:08:58,     51,    0.0,    0.1,   0.00,   0.00, 1024.0,   78.0, -999.0
07-03-2022, 00:09:08,     51,    0.0,    0.1,   0.00,   0.00, 1024.0,   78.1, -999.0
07-03-2022, 00:09:18,     51,    0.0,    0.2,   0.00,   0.00, 1024.0,   78.1, -999.0
07-03-2022, 00:09:27,     51,    0.0,    0.2,   0.00,   0.00, 1024.0,   78.2, -999.0
07-03-2022, 00:09:38,     51,    0.0,    0.2,   0.00,   0.00, 1024.0,   78.1, -999.0
07-03-2022, 00:09:48,     50,    0.0,    0.3,   0.00,   0.00, 1024.0,   78.1, -999.0
07-03-2022, 00:09:57,     52,    0.0,    0.3,   0.00,   0.00, 1024.1,   78.1, -999.0
07-03-2022, 00:10:07,     51,    0.0,    0.3,   0.00,   0.00, 1024.0,   78.1, -999.0
07-03-2022, 00:10:18,     51,    0.0,    0.2,   0.00,   0.00, 1024.0,   78.0, -999.0
07-03-2022, 00:10:27,     52,    0.0,    0.3,   0.00,   0.00, 1024.0,   78.0, -999.0
07-03-2022, 00:10:37,     51,    0.0,    0.3,   0.00,   0.00, 1024.0,   78.0, -999.0
07-03-2022, 00:10:47,     51,    0.0,    0.3,   0.00,   0.00, 1024.0,   77.9, -999.0
07-03-2022, 00:10:57,     51,    0.0,    0.3,   0.00,   0.00, 1024.0,   77.8, -999.0
07-03-2022, 00:11:07,     51,    0.0,    0.2,   0.00,   0.00, 1024.1,   77.9, -999.0
07-03-2022, 00:11:17,     51,    0.0,    0.2,   0.00,   0.00, 1024.1,   77.7, -999.0
07-03-2022, 00:11:27,     51,    0.0,    0.3,   0.00,   0.00, 1024.0,   77.7, -999.0
07-03-2022, 00:11:37,     51,    0.0,    0.2,   0.00,   0.00, 1024.1,   77.7, -999.0
07-03-2022, 00:11:47,     51,    0.0,    0.2,   0.00,   0.00, 1024.0,   77.6, -999.0
07-03-2022, 00:11:57,     51,    0.0,    0.3,   0.00,   0.00, 1024.1,   77.8, -999.0
07-03-2022, 00:12:07,     51,    0.0,    0.2,   0.00,   0.00, 1024.1,   77.7, -999.0
07-03-2022, 00:12:17,     51,    0.0,    0.3,   0.00,   0.00, 1024.0,   77.6, -999.0
07-03-2022, 00:12:27,     51,    0.0,    0.2,   0.00,   0.00, 1024.1,   77.5, -999.0
07-03-2022, 00:12:37,     51,    0.0,    0.2,   0.00,   0.00, 1024.1,   77.4, -999.0
07-03-2022, 00:12:47,     51,    0.0,    0.2,   0.00,   0.00, 1024.0,   77.4, -999.0
07-03-2022, 00:12:57,     51,    0.0,    0.2,   0.00,   0.00, 1024.0,   77.4, -999.0
07-03-2022, 00:13:06,     51,    0.0,    0.2,   0.00,   0.00, 1024.0,   77.6, -999.0
07-03-2022, 00:13:17,     51,    0.0,    0.2,   0.00,   0.00, 1024.0,   77.6, -999.0
07-03-2022, 00:13:27,     51,    0.0,    0.2,   0.00,   0.00, 1024.0,   77.6, -999.0
07-03-2022, 00:13:36,     51,    0.0,    0.3,   0.00,   0.00, 1024.0,   77.7, -999.0
07-03-2022, 00:13:46,     51,    0.0,    0.2,   0.00,   0.00, 1024.1,   77.6, -999.0
07-03-2022, 00:13:56,     51,    0.0,    0.3,   0.00,   0.00, 1024.0,   77.5, -999.0
07-03-2022, 00:14:06,     51,    0.0,    0.3,   0.00,   0.00, 1024.0,   77.5, -999.0
07-03-2022, 00:14:16,     51,    0.0,    0.3,   0.00,   0.00, 1024.0,   77.5, -999.0
07-03-2022, 00:14:26,     51,    0.0,    0.3,   0.00,   0.00, 1024.0,   77.5, -999.0
07-03-2022, 00:14:36,     51,    0.0,    0.3,   0.00,   0.00, 1024.0,   77.5, -999.0
07-03-2022, 00:14:46,     51,    0.0,    0.4,   0.00,   0.00, 1024.0,   77.5, -999.0
07-03-2022, 00:14:56,     52,    0.0,    0.3,   0.00,   0.00, 1024.0,   77.5, -999.0
07-03-2022, 00:15:06,     51,    0.0,    0.3,   0.00,   0.00, 1024.0,   77.4, -999.0
07-03-2022, 00:15:16,     51,    0.0,    0.2,   0.00,   0.00, 1024.0,   77.5, -999.0
07-03-2022, 00:15:26,     52,    0.0,    0.3,   0.00,   0.00, 1024.0,   77.4, -999.0
07-03-2022, 00:15:36,     51,    0.0,    0.3,   0.00,   0.00, 1024.1,   77.5, -999.0
07-03-2022, 00:15:46,     51,    0.0,    0.3,   0.00,   0.00, 1024.0,   77.4, -999.0
07-03-2022, 00:15:56,     51,    0.0,    0.2,   0.00,   0.00, 1024.0,   77.4, -999.0
07-03-2022, 00:16:06,     51,    0.0,    0.2,   0.00,   0.00, 1024.0,   77.5, -999.0
07-03-2022, 00:16:16,     52,    0.0,    0.3,   0.00,   0.00, 1024.0,   77.4, -999.0
07-03-2022, 00:16:26,     51,    0.0,    0.3,   0.00,   0.00, 1024.0,   77.4, -999.0
07-03-2022, 00:16:36,     51,    0.0,    0.3,   0.00,   0.00, 1024.0,   77.4, -999.0
07-03-2022, 00:16:45,     51,    0.0,    0.3,   0.00,   0.00, 1024.0,   77.6, -999.0
07-03-2022, 00:16:56,     51,    0.0,    0.4,   0.00,   0.00, 1024.0,   77.4, -999.0
07-03-2022, 00:17:05,     51,    0.0,    0.4,   0.00,   0.00, 1024.0,   77.5, -999.0
07-03-2022, 00:17:15,     51,    0.0,    0.3,   0.00,   0.00, 1024.0,   77.4, -999.0
07-03-2022, 00:17:25,     51,    0.0,    0.3,   0.00,   0.00, 1024.0,   77.4, -999.0
07-03-2022, 00:17:35,     51,    0.0,    0.4,   0.00,   0.00, 1024.0,   77.6, -999.0
07-03-2022, 00:17:45,     51,    0.0,    0.4,   0.00,   0.00, 1024.0,   77.6, -999.0
07-03-2022, 00:17:55,     51,    0.0,    0.5,   0.00,   0.00, 1024.0,   77.9, -999.0
07-03-2022, 00:18:05,     51,    0.0,    0.5,   0.00,   0.00, 1024.0,   78.0, -999.0
07-03-2022, 00:18:15,     51,    0.0,    0.6,   0.00,   0.00, 1024.0,   77.8, -999.0
07-03-2022, 00:18:25,     51,    0.0,    0.6,   0.00,   0.00, 1024.0,   77.7, -999.0
07-03-2022, 00:18:35,     51,    0.0,    0.6,   0.00,   0.00, 1024.0,   77.4, -999.0
07-03-2022, 00:18:45,     51,    0.0,    0.6,   0.00,   0.00, 1024.0,   77.3, -999.0
07-03-2022, 00:18:55,     51,    0.0,    0.6,   0.00,   0.00, 1024.0,   77.3, -999.0
07-03-2022, 00:19:05,     51,    0.0,    0.6,   0.00,   0.00, 1024.0,   77.1, -999.0
07-03-2022, 00:19:15,     51,    0.0,    0.5,   0.00,   0.00, 1024.0,   76.8, -999.0
07-03-2022, 00:19:25,     51,    0.0,    0.5,   0.00,   0.00, 1024.0,   76.7, -999.0
07-03-2022, 00:19:35,     51,    0.0,    0.5,   0.00,   0.00, 1024.0,   76.5, -999.0
07-03-2022, 00:19:45,     51,    0.0,    0.4,   0.00,   0.00, 1023.9,   76.7, -999.0
07-03-2022, 00:19:54,     51,    0.0,    0.5,   0.00,   0.00, 1024.0,   76.6, -999.0
07-03-2022, 00:20:05,     51,    0.0,    0.5,   0.00,   0.00, 1024.0,   76.6, -999.0
07-03-2022, 00:20:14,     51,    0.0,    0.4,   0.00,   0.00, 1023.9,   76.4, -999.0
07-03-2022, 00:20:24,     51,    0.0,    0.4,   0.00,   0.00, 1024.0,   76.5, -999.0
07-03-2022, 00:20:35,     51,    0.0,    0.3,   0.00,   0.00, 1023.9,   76.6, -999.0
07-03-2022, 00:20:44,     51,    0.0,    0.4,   0.00,   0.00, 1024.0,   76.6, -999.0
07-03-2022, 00:20:54,     51,    0.0,    0.4,   0.00,   0.00, 1023.9,   76.7, -999.0
07-03-2022, 00:21:04,     51,    0.0,    0.4,   0.00,   0.00, 1024.0,   76.6, -999.0
07-03-2022, 00:21:14,     51,    0.0,    0.3,   0.00,   0.00, 1024.0,   76.7, -999.0
07-03-2022, 00:21:24,     51,    0.0,    0.4,   0.00,   0.00, 1023.9,   76.5, -999.0
07-03-2022, 00:21:34,     51,    0.0,    0.3,   0.00,   0.00, 1023.9,   76.5, -999.0
07-03-2022, 00:21:44,     51,    0.0,    0.4,   0.00,   0.00, 1023.9,   76.5, -999.0
07-03-2022, 00:21:54,     51,    0.0,    0.4,   0.00,   0.00, 1024.0,   76.6, -999.0
07-03-2022, 00:22:04,     51,    0.0,    0.4,   0.00,   0.00, 1023.9,   76.7, -999.0
07-03-2022, 00:22:14,     51,    0.0,    0.4,   0.00,   0.00, 1023.9,   76.8, -999.0
07-03-2022, 00:22:24,     52,    0.0,    0.4,   0.00,   0.00, 1023.9,   76.8, -999.0
07-03-2022, 00:22:34,     51,    0.0,    0.4,   0.00,   0.00, 1024.0,   76.8, -999.0
07-03-2022, 00:22:44,     52,    0.0,    0.5,   0.00,   0.00, 1024.0,   76.7, -999.0
07-03-2022, 00:22:54,     51,    0.0,    0.4,   0.00,   0.00, 1023.9,   76.9, -999.0
07-03-2022, 00:23:04,     49,    0.0,    0.5,   0.00,   0.00, 1023.9,   77.1, -999.0
07-03-2022, 00:23:14,     51,    0.0,    0.5,   0.00,   0.00, 1023.9,   77.1, -999.0
07-03-2022, 00:23:23,     51,    0.0,    0.6,   0.00,   0.00, 1023.9,   77.0, -999.0
07-03-2022, 00:23:33,     51,    0.0,    0.6,   0.00,   0.00, 1023.9,   76.9, -999.0
07-03-2022, 00:23:44,     51,    0.0,    0.6,   0.00,   0.00, 1023.9,   76.8, -999.0
07-03-2022, 00:23:53,     51,    0.0,    0.7,   0.00,   0.00, 1023.9,   76.8, -999.0
07-03-2022, 00:24:03,     51,    0.0,    0.8,   0.00,   0.00, 1023.9,   76.9, -999.0
07-03-2022, 00:24:13,     51,    0.0,    0.8,   0.00,   0.00, 1023.9,   77.0, -999.0
07-03-2022, 00:24:23,     51,    0.0,    0.7,   0.00,   0.00, 1023.9,   77.0, -999.0
07-03-2022, 00:24:33,     51,    0.0,    0.7,   0.00,   0.00, 1023.9,   76.8, -999.0
07-03-2022, 00:24:43,     51,    0.0,    0.8,   0.00,   0.00, 1023.9,   76.7, -999.0
07-03-2022, 00:24:53,     52,    0.0,    0.8,   0.00,   0.00, 1023.9,   76.7, -999.0
07-03-2022, 00:25:03,     52,    0.0,    0.9,   0.00,   0.00, 1023.9,   76.9, -999.0
07-03-2022, 00:25:13,     52,    0.0,    0.9,   0.00,   0.00, 1023.9,   76.8, -999.0
07-03-2022, 00:25:23,     51,    0.0,    0.9,   0.00,   0.00, 1023.9,   76.6, -999.0
07-03-2022, 00:25:33,     52,    0.0,    1.0,   0.00,   0.00, 1024.0,   76.5, -999.0
07-03-2022, 00:25:43,     51,    0.0,    1.0,   0.00,   0.00, 1023.9,   76.5, -999.0
07-03-2022, 00:25:53,     51,    0.0,    1.1,   0.00,   0.00, 1023.9,   76.5, -999.0
07-03-2022, 00:26:03,     51,    0.0,    1.0,   0.00,   0.00, 1024.0,   76.1, -999.0
07-03-2022, 00:26:13,     51,    0.0,    1.0,   0.00,   0.00, 1024.0,   76.0, -999.0
07-03-2022, 00:26:23,     51,    0.0,    1.0,   0.00,   0.00, 1023.9,   75.9, -999.0
07-03-2022, 00:26:33,     51,    0.0,    0.9,   0.00,   0.00, 1024.0,   75.4, -999.0
07-03-2022, 00:26:42,     51,    0.0,    0.8,   0.00,   0.00, 1024.0,   75.2, -999.0
07-03-2022, 00:26:53,     51,    0.0,    0.8,   0.00,   0.00, 1024.0,   75.3, -999.0
07-03-2022, 00:27:02,     51,    0.0,    0.9,   0.00,   0.00, 1024.0,   75.2, -999.0
07-03-2022, 00:27:12,     51,    0.0,    0.8,   0.00,   0.00, 1023.9,   75.3, -999.0
07-03-2022, 00:27:22,     51,    0.0,    0.9,   0.00,   0.00, 1024.0,   75.4, -999.0
07-03-2022, 00:27:32,     51,    0.0,    0.9,   0.00,   0.00, 1024.0,   75.7, -999.0
07-03-2022, 00:27:42,     52,    0.2,    1.0,   0.00,   0.00, 1024.0,   75.7, -999.0
07-03-2022, 00:27:52,     51,    0.4,    1.1,   0.00,   0.00, 1024.0,   75.7, -999.0
07-03-2022, 00:28:02,     51,    0.0,    1.1,   0.00,   0.00, 1023.9,   75.7, -999.0
07-03-2022, 00:28:12,     51,    0.0,    1.2,   0.00,   0.00, 1023.9,   75.9, -999.0
07-03-2022, 00:28:22,     51,    0.0,    1.2,   0.00,   0.00, 1023.9,   75.5, -999.0
07-03-2022, 00:28:32,     51,    0.0,    1.1,   0.00,   0.00, 1023.9,   75.2, -999.0
07-03-2022, 00:28:42,     51,    0.0,    1.1,   0.00,   0.00, 1024.0,   75.0, -999.0
07-03-2022, 00:28:52,     51,    0.0,    1.1,   0.00,   0.00, 1023.9,   74.9, -999.0
07-03-2022, 00:29:02,     51,    0.0,    0.9,   0.00,   0.00, 1023.9,   74.8, -999.0
07-03-2022, 00:29:12,     52,    0.0,    0.9,   0.00,   0.00, 1023.9,   74.7, -999.0
07-03-2022, 00:29:22,     51,    0.0,    1.0,   0.00,   0.00, 1023.9,   74.5, -999.0
07-03-2022, 00:29:32,     51,    0.0,    0.9,   0.00,   0.00, 1024.0,   74.6, -999.0
07-03-2022, 00:29:42,     51,    0.0,    0.9,   0.00,   0.00, 1023.9,   74.5, -999.0
07-03-2022, 00:29:51,     51,    0.0,    0.9,   0.00,   0.00, 1024.0,   74.4, -999.0
07-03-2022, 00:30:02,     51,    0.0,    0.6,   0.00,   0.00, 1024.0,   74.2, -999.0
07-03-2022, 00:30:12,     51,    0.0,    0.7,   0.00,   0.00, 1024.0,   74.0, -999.0
07-03-2022, 00:30:21,     51,    0.0,    0.7,   0.00,   0.00, 1024.0,   74.2, -999.0
07-03-2022, 00:30:32,     51,    0.0,    0.7,   0.00,   0.00, 1024.0,   74.1, -999.0
07-03-2022, 00:30:41,     51,    0.0,    0.7,   0.00,   0.00, 1024.0,   74.4, -999.0
07-03-2022, 00:30:51,     51,    0.0,    0.7,   0.00,   0.00, 1024.0,   74.4, -999.0
07-03-2022, 00:31:01,     51,    0.0,    0.6,   0.00,   0.00, 1024.0,   74.3, -999.0
07-03-2022, 00:31:11,     51,    0.0,    0.7,   0.00,   0.00, 1023.9,   74.5, -999.0
07-03-2022, 00:31:21,     51,    0.0,    0.6,   0.00,   0.00, 1023.9,   74.3, -999.0
07-03-2022, 00:31:31,     51,    0.0,    0.6,   0.00,   0.00, 1024.0,   74.4, -999.0
07-03-2022, 00:31:41,     51,    0.0,    0.6,   0.00,   0.00, 1024.0,   74.3, -999.0
07-03-2022, 00:31:51,     51,    0.0,    0.6,   0.00,   0.00, 1024.0,   74.5, -999.0
07-03-2022, 00:32:01,     51,    0.0,    0.6,   0.00,   0.00, 1023.9,   74.6, -999.0
07-03-2022, 00:32:11,     51,    0.0,    0.5,   0.00,   0.00, 1024.0,   74.6, -999.0
07-03-2022, 00:32:21,     51,    0.0,    0.5,   0.00,   0.00, 1024.0,   74.5, -999.0
07-03-2022, 00:32:31,     51,    0.0,    0.6,   0.00,   0.00, 1024.0,   74.6, -999.0
07-03-2022, 00:32:41,     51,    0.0,    0.6,   0.00,   0.00, 1024.0,   74.9, -999.0
07-03-2022, 00:32:51,     51,    0.0,    0.6,   0.00,   0.00, 1024.0,   74.9, -999.0
07-03-2022, 00:33:01,     51,    0.0,    0.5,   0.00,   0.00, 1024.0,   74.9, -999.0
07-03-2022, 00:33:11,     51,    0.0,    0.5,   0.00,   0.00, 1023.9,   74.7, -999.0
07-03-2022, 00:33:21,     51,    0.0,    0.5,   0.00,   0.00, 1023.9,   74.7, -999.0
07-03-2022, 00:33:30,     51,    0.0,    0.5,   0.00,   0.00, 1023.9,   74.7, -999.0
07-03-2022, 00:33:41,     51,    0.0,    0.5,   0.00,   0.00, 1023.9,   74.6, -999.0
07-03-2022, 00:33:50,     51,    0.0,    0.5,   0.00,   0.00, 1023.9,   74.8, -999.0
07-03-2022, 00:34:00,     51,    0.0,    0.4,   0.00,   0.00, 1023.9,   74.7, -999.0
07-03-2022, 00:34:10,     51,    0.0,    0.5,   0.00,   0.00, 1023.9,   74.7, -999.0
07-03-2022, 00:34:20,     51,    0.0,    0.4,   0.00,   0.00, 1024.0,   74.8, -999.0
07-03-2022, 00:34:30,     51,    0.0,    0.5,   0.00,   0.00, 1024.0,   74.8, -999.0
07-03-2022, 00:34:40,     51,    0.0,    0.4,   0.00,   0.00, 1024.0,   74.9, -999.0
07-03-2022, 00:34:50,     51,    0.0,    0.4,   0.00,   0.00, 1023.9,   74.8, -999.0
07-03-2022, 00:35:00,     51,    0.0,    0.4,   0.00,   0.00, 1023.9,   74.7, -999.0
07-03-2022, 00:35:10,     51,    0.0,    0.3,   0.00,   0.00, 1023.9,   74.7, -999.0
07-03-2022, 00:35:20,     51,    0.1,    0.3,   0.00,   0.00, 1024.0,   74.9, -999.0
07-03-2022, 00:35:30,     51,    0.3,    0.4,   0.00,   0.00, 1024.0,   75.3, -999.0
07-03-2022, 00:35:40,     51,    0.0,    0.4,   0.00,   0.00, 1023.9,   75.1, -999.0
07-03-2022, 00:35:50,     51,    0.0,    0.3,   0.00,   0.00, 1023.9,   75.2, -999.0
07-03-2022, 00:36:00,     51,    0.0,    0.4,   0.00,   0.00, 1023.9,   75.4, -999.0
07-03-2022, 00:36:10,     51,    0.0,    0.5,   0.00,   0.00, 1023.9,   75.5, -999.0
07-03-2022, 00:36:20,     51,    0.0,    0.5,   0.00,   0.00, 1023.9,   75.7, -999.0
07-03-2022, 00:36:30,     51,    0.0,    0.5,   0.00,   0.00, 1023.9,   75.7, -999.0
07-03-2022, 00:36:39,     51,    0.0,    0.7,   0.00,   0.00, 1023.9,   75.8, -999.0
07-03-2022, 00:36:50,     51,    0.0,    0.6,   0.00,   0.00, 1023.9,   75.6, -999.0
07-03-2022, 00:37:00,     51,    0.0,    0.6,   0.00,   0.00, 1023.9,   75.5, -999.0
07-03-2022, 00:37:09,     51,    0.0,    0.6,   0.00,   0.00, 1023.9,   75.2, -999.0
07-03-2022, 00:37:19,     51,    0.0,    0.4,   0.00,   0.00, 1023.9,   75.1, -999.0
07-03-2022, 00:37:29,     51,    0.0,    0.4,   0.00,   0.00, 1023.9,   75.3, -999.0
07-03-2022, 00:37:39,     51,    0.0,    0.4,   0.00,   0.00, 1023.9,   75.2, -999.0
07-03-2022, 00:37:49,     51,    0.0,    0.5,   0.00,   0.00, 1023.9,   75.2, -999.0
07-03-2022, 00:37:59,     51,    0.0,    0.5,   0.00,   0.00, 1023.9,   75.2, -999.0
07-03-2022, 00:38:09,     51,    0.0,    0.5,   0.00,   0.00, 1023.9,   75.5, -999.0
07-03-2022, 00:38:19,     51,    0.0,    0.6,   0.00,   0.00, 1023.9,   75.6, -999.0
07-03-2022, 00:38:29,     52,    0.0,    0.6,   0.00,   0.00, 1023.9,   75.5, -999.0
07-03-2022, 00:38:39,     51,    0.0,    0.5,   0.00,   0.00, 1023.9,   75.5, -999.0
07-03-2022, 00:38:49,     52,    0.0,    0.4,   0.00,   0.00, 1023.9,   75.4, -999.0
07-03-2022, 00:38:59,     51,    0.0,    0.5,   0.00,   0.00, 1023.9,   75.3, -999.0
07-03-2022, 00:39:09,     51,    0.0,    0.3,   0.00,   0.00, 1023.9,   75.3, -999.0
07-03-2022, 00:39:19,     51,    0.0,    0.4,   0.00,   0.00, 1023.9,   75.4, -999.0
07-03-2022, 00:39:29,     51,    0.0,    0.5,   0.00,   0.00, 1023.9,   75.5, -999.0
07-03-2022, 00:39:39,     51,    0.0,    0.5,   0.00,   0.00, 1023.9,   75.5, -999.0
07-03-2022, 00:39:48,     51,    0.0,    0.4,   0.00,   0.00, 1023.9,   75.4, -999.0
07-03-2022, 00:39:59,     51,    0.0,    0.5,   0.00,   0.00, 1023.9,   75.4, -999.0
07-03-2022, 00:40:09,     51,    0.0,    0.4,   0.00,   0.00, 1023.9,   75.5, -999.0
07-03-2022, 00:40:18,     51,    0.0,    0.4,   0.00,   0.00, 1023.9,   75.6, -999.0
07-03-2022, 00:40:29,     51,    0.0,    0.5,   0.00,   0.00, 1023.9,   75.6, -999.0
07-03-2022, 00:40:38,     51,    0.0,    0.5,   0.00,   0.00, 1023.9,   75.8, -999.0
07-03-2022, 00:40:48,     51,    0.0,    0.4,   0.00,   0.00, 1024.0,   75.7, -999.0
07-03-2022, 00:40:58,     51,    0.0,    0.3,   0.00,   0.00, 1023.9,   75.6, -999.0
07-03-2022, 00:41:08,     51,    0.0,    0.4,   0.00,   0.00, 1023.9,   75.6, -999.0
07-03-2022, 00:41:18,     51,    0.0,    0.5,   0.00,   0.00, 1023.9,   75.8, -999.0
07-03-2022, 00:41:28,     51,    0.0,    0.5,   0.00,   0.00, 1023.9,   75.9, -999.0
07-03-2022, 00:41:38,     51,    0.0,    0.5,   0.00,   0.00, 1023.9,   75.8, -999.0
07-03-2022, 00:41:48,     51,    0.0,    0.5,   0.00,   0.00, 1023.9,   75.9, -999.0
07-03-2022, 00:41:58,     51,    0.0,    0.4,   0.00,   0.00, 1023.9,   75.8, -999.0
07-03-2022, 00:42:08,     51,    0.0,    0.5,   0.00,   0.00, 1023.9,   75.9, -999.0
07-03-2022, 00:42:18,     51,    0.0,    0.5,   0.00,   0.00, 1023.9,   76.0, -999.0
07-03-2022, 00:42:28,     51,    0.0,    0.6,   0.00,   0.00, 1023.9,   76.1, -999.0
07-03-2022, 00:42:38,     51,    0.0,    0.7,   0.00,   0.00, 1023.9,   76.4, -999.0
07-03-2022, 00:42:48,     52,    0.0,    0.6,   0.00,   0.00, 1023.9,   76.4, -999.0
07-03-2022, 00:42:58,     51,    0.0,    0.8,   0.00,   0.00, 1023.9,   76.5, -999.0
07-03-2022, 00:43:08,     51,    0.0,    0.7,   0.00,   0.00, 1023.9,   76.4, -999.0
07-03-2022, 00:43:18,     51,    0.0,    0.7,   0.00,   0.00, 1023.9,   76.5, -999.0
07-03-2022, 00:43:27,     51,    0.0,    0.7,   0.00,   0.00, 1023.9,   76.2, -999.0
07-03-2022, 00:43:38,     51,    0.0,    0.8,   0.00,   0.00, 1023.9,   76.1, -999.0
07-03-2022, 00:43:48,     51,    0.0,    0.8,   0.00,   0.00, 1023.9,   76.2, -999.0
07-03-2022, 00:43:57,     51,    0.0,    0.7,   0.00,   0.00, 1023.9,   76.0, -999.0
07-03-2022, 00:44:07,     51,    0.0,    0.8,   0.00,   0.00, 1023.9,   75.9, -999.0
07-03-2022, 00:44:17,     51,    0.0,    0.8,   0.00,   0.00, 1023.9,   76.0, -999.0
07-03-2022, 00:44:27,     51,    0.0,    0.8,   0.00,   0.00, 1023.9,   75.9, -999.0
07-03-2022, 00:44:37,     51,    0.0,    0.7,   0.00,   0.00, 1023.9,   75.9, -999.0
07-03-2022, 00:44:47,     51,    0.0,    0.7,   0.00,   0.00, 1023.9,   75.8, -999.0
07-03-2022, 00:44:57,     51,    0.0,    0.7,   0.00,   0.00, 1023.9,   75.7, -999.0
07-03-2022, 00:45:07,     51,    0.0,    0.7,   0.00,   0.00, 1023.9,   75.6, -999.0
07-03-2022, 00:45:17,     51,    0.0,    0.6,   0.00,   0.00, 1023.9,   75.4, -999.0
07-03-2022, 00:45:27,     51,    0.0,    0.6,   0.00,   0.00, 1023.9,   75.4, -999.0
07-03-2022, 00:45:37,     51,    0.0,    0.6,   0.00,   0.00, 1023.9,   75.3, -999.0
07-03-2022, 00:45:47,     51,    0.0,    0.6,   0.00,   0.00, 1023.9,   75.6, -999.0
07-03-2022, 00:45:57,     51,    0.0,    0.6,   0.00,   0.00, 1023.9,   75.5, -999.0
07-03-2022, 00:46:07,     51,    0.0,    0.6,   0.00,   0.00, 1023.9,   75.3, -999.0
07-03-2022, 00:46:17,     51,    0.0,    0.6,   0.00,   0.00, 1023.9,   75.4, -999.0
07-03-2022, 00:46:27,     51,    0.0,    0.5,   0.00,   0.00, 1023.9,   75.2, -999.0
07-03-2022, 00:46:36,     51,    0.0,    0.5,   0.00,   0.00, 1023.9,   75.5, -999.0